Location: LDNL
(36.4545°S, 141.6685°E)
Time: 11:27:53
(UTC+10:00)

A-11 Canister half - Pass Details

Date: 13 August 2022
Orbit: 1524 x 1684 km, 47.3° (Epoch: 26 September)

Event Time Altitude Azimuth Distance (km) Brightness Sun altitude
Rises 20:56:32 0° 251° (WSW) 4,690 12.5 -36.3°
Reaches altitude 10° 20:59:48 10° 244° (WSW) 3,708 11.7 -36.9°
Enters shadow 21:08:20 44° 178° (S) 2,030 9.5 -38.6°
Maximum altitude 21:08:39 44° 173° (S) 2,028 - -38.7°
Drops below altitude 10° 21:17:38 10° 102° (ESE) 3,766 - -40.4°
Sets 21:20:58 0° 95° (E) 4,769 - -41.1°
